FENGYUN 1C DEB, 30836

Orbit data source: Space-Track

FENGYUN 1C DEB, 30836 is space debris in SSO originally from a launch on Mon, 10 May 1999 UTC launched from the Taiyaun Space Center, China (TSC). Fengyun 1C debris stems from the Chinese weather satellite Fengyun-1C, which was intentionally destroyed by a Chinese anti-satellite missile in 2007. This event dramatically increased the amount of space debris, with thousands of trackable fragments posing hazards to satellites and human spaceflight. The Fengyun 1C debris cloud has become a focal point in discussions about space sustainability and the need for international regulations to prevent the creation of new debris.

Loading next visibility...
Identifier
30836, 1999-025AVW
Orbit
SSO
Country
Flag of CNCN / PRC
Related business
Manufacturer
Unknown
Mission
Spacecraft
Bus & Motor
Unknown
Mass
Unknown
Launch date (UTC)
1999-05-10 (27 years ago)
Launch vehicle
Unknown
Launch site
Taiyaun Space Center, China (TSC)
Object type
Payload
Rocket body
Debris
Shape & HBR
Unknown shape, 0.1 m
Radar Cross Section
Small (<0.1 m²)

Expand to show TLE details & history
Last TLE update: 5 days ago

TLE from 5 days ago
0 FENGYUN 1C DEB
1 30836U 99025AVW 26250.81530386  .00000344  00000-0  20975-3 0  9991
2 30836  98.7187 281.4265 0026053 198.3611 161.6623 14.12235534658010
Epoch: 2026-09-07T19:34Z
TLE epoch observation values (Epoch: 2026-09-07T19:34:02.253Z)
Latitude
-0.00003°
Longitude
1.02646°
Altitude
872.523 km
Speed
7.407 km/s
True Right ascension
18h 45m 42s
True Declination
0° 00' 00"
Sunlit
Object was in daylight at epoch
Visualization orbit readout
Latitude
Unknown
Longitude
Unknown
Altitude
Unknown
Speed
Unknown
Apparent Right ascension
Unknown
Apparent Declination
Unknown
Sunlit
N/A
Visualization observer readout
Local Sidereal Time
08:48:13
Azimuth
Unknown
Elevation
Unknown
Doppler factor
Unknown
Orbital elements
Apogee altitude
867.73 km
Perigee altitude
830.073 km
Semi-major axis
7,227.038 km
Eccentricity
0.00261
Inclination
98.7187°
RAAN
281.4265°
Arg. of periapsis
198.3611°
True anomaly
161.75594°
Mean anomaly
161.6623°
Eccentric anomaly
161.70915°
Mean motion
3.53267 °/min
Orbital period
101.91 mins
BSTAR
0.00020975
Loading maneuver chart data...
Computing Atmospheric mass density...

Documentation

Showing up to 5 results
|